Tunica, MS

12:05 AM CDT on June 23, 2017 (GMT -0500)
Tunica

Weather History for KUTA - January, 2013

Change the Weather History Date:

Sunday, January 13, 2013

  Actual Average (KAWM) Record (KAWM)
Temperature  
Mean Temperature 51 °F -  
Max Temperature 69 °F 45 °F 72 °F (1976)
Min Temperature 33 °F 27 °F 8 °F (1982)
Degree Days  
Heating Degree Days 14    
Growing Degree Days 1 (Base 50)    
Moisture  
Dew Point 40 °F    
Average Humidity 91    
Maximum Humidity 100    
Minimum Humidity 83    
Precipitation  
Precipitation 2.43 in - - ()
Sea Level Pressure  
Sea Level Pressure 30.04 in    
Wind  
Wind Speed 17 mph (NNW)    
Max Wind Speed 24 mph    
Max Gust Speed 29 mph    
Visibility 8 miles    
Events Rain , Thunderstorm    
Averages and records for this station are not official NWS values.
T = Trace of Precipitation, MM = Missing Value Source: NWS Daily Summary

Daily Weather History Graph

Daily Weather History Graph

Search for Another Location

Airport or City:

Trip Planner

Search our weather history database for the weather conditions in past years. The results will help you decide how hot, cold, wet, or windy it might be!

Date:

Astronomy

Jan. 13, 2013 Rise Set
Actual Time 7:08 AM CST 5:12 PM CST
Civil Twilight 6:41 AM CST 5:39 PM CST
Nautical Twilight 6:10 AM CST 6:10 PM CST
Astronomical Twilight 5:39 AM CST 6:41 PM CST
Moon 8:13 AM CST (1/13) 7:42 PM CST (1/13)
Length of Visible Light 10h 58m
Length of Day
10h 03m
Waxing Crescent, 5% of the Moon is Illuminated
Jan 13
Waxing Crescent
Jan 18
First Quarter
Jan 26
Full
Feb 3
Last Quarter
Feb 10
New

Hourly Weather History & Observations

Time (CST) Temp. Windchill Dew Point Humidity Pressure Visibility Wind Dir Wind Speed Gust Speed Precip Events Conditions
12:15 AM 69.8 °F - 64.4 °F 83% 29.76 in 10.0 mi South 17.3 mph 26.5 mph N/A Thunderstorm Scattered Clouds
12:35 AM 68.0 °F - 64.4 °F 88% 29.77 in 7.0 mi South 15.0 mph 27.6 mph 0.08 in Rain Light Rain
12:55 AM 68.0 °F - 64.4 °F 88% 29.77 in 10.0 mi South 16.1 mph 21.9 mph 0.08 in Rain , Thunderstorm Light Thunderstorms and Rain
1:15 AM 68.0 °F - 64.4 °F 88% 29.76 in 10.0 mi South 16.1 mph 19.6 mph N/A Thunderstorm Overcast
1:35 AM 68.0 °F - 64.4 °F 88% 29.77 in 10.0 mi South 16.1 mph - N/A   Mostly Cloudy
1:55 AM 68.0 °F - 64.4 °F 88% 29.77 in 5.0 mi South 13.8 mph - 0.02 in Rain , Thunderstorm Rain
2:15 AM 60.8 °F - 59.0 °F 94% 29.81 in 2.5 mi West 15.0 mph 28.8 mph 0.21 in Rain , Thunderstorm Heavy Thunderstorms and Rain
2:35 AM 60.8 °F - 59.0 °F 94% 29.83 in 1.2 mi West 6.9 mph - 0.79 in Rain , Thunderstorm Heavy Thunderstorms and Rain
3:15 AM 48.2 °F - 46.4 °F 93% 29.84 in 5.0 mi NNW 15.0 mph - 0.06 in Rain , Thunderstorm Thunderstorms and Rain
3:35 AM 46.4 °F 40.7 °F 44.6 °F 93% 29.88 in 5.0 mi NNW 12.7 mph - 0.13 in Rain , Thunderstorm Heavy Thunderstorms and Rain
3:55 AM 46.4 °F 40.1 °F 44.6 °F 93% 29.88 in 7.0 mi NNW 15.0 mph - 0.19 in Rain , Thunderstorm Thunderstorms and Rain
4:15 AM 44.6 °F 38.1 °F 44.6 °F 100% 29.87 in 7.0 mi NNW 13.8 mph 19.6 mph 0.06 in Rain , Thunderstorm Heavy Thunderstorms and Rain
4:35 AM 44.6 °F 38.1 °F 44.6 °F 100% 29.87 in 5.0 mi NNW 13.8 mph - 0.14 in Rain , Thunderstorm Heavy Thunderstorms and Rain
4:55 AM 46.4 °F 40.1 °F 44.6 °F 93% 29.85 in 7.0 mi North 15.0 mph - 0.22 in Rain , Thunderstorm Heavy Thunderstorms and Rain
5:15 AM 46.4 °F 39.5 °F 44.6 °F 93% 29.87 in 10.0 mi NNW 17.3 mph - 0.02 in Rain Light Rain
5:35 AM 44.6 °F 36.6 °F 44.6 °F 100% 29.88 in 7.0 mi NNW 19.6 mph 25.3 mph 0.04 in Rain Rain
6:15 AM 44.6 °F 37.4 °F 42.8 °F 93% 29.88 in 4.0 mi North 16.1 mph - 0.06 in Rain , Thunderstorm Rain
6:35 AM 42.8 °F 35.1 °F 42.8 °F 100% 29.90 in 3.0 mi North 16.1 mph - 0.16 in Rain , Thunderstorm Thunderstorms and Rain
6:55 AM 42.8 °F 35.4 °F 41.0 °F 93% 29.89 in 3.0 mi North 15.0 mph - 0.25 in Rain Heavy Rain
7:15 AM 42.8 °F 34.8 °F 41.0 °F 93% 29.93 in 4.0 mi NNW 17.3 mph 23.0 mph 0.05 in Rain , Thunderstorm Heavy Thunderstorms and Rain
7:35 AM 42.8 °F 34.5 °F 41.0 °F 93% 29.94 in 3.0 mi NNW 18.4 mph 23.0 mph 0.13 in Rain , Thunderstorm Thunderstorms and Rain
7:55 AM 41.0 °F 32.2 °F 39.2 °F 93% 29.97 in 3.0 mi NNW 18.4 mph 23.0 mph 0.21 in   Unknown
8:15 AM 41.0 °F 31.9 °F 39.2 °F 93% 29.98 in 5.0 mi NNW 19.6 mph - 0.06 in Rain , Thunderstorm Thunderstorms and Rain
8:35 AM 41.0 °F 32.2 °F 39.2 °F 93% 29.97 in 4.0 mi North 18.4 mph - 0.10 in Rain Rain
8:55 AM 41.0 °F 32.5 °F 39.2 °F 93% 29.94 in 7.0 mi North 17.3 mph - 0.13 in Rain Rain
9:15 AM 41.0 °F 32.2 °F 39.2 °F 93% 29.95 in 5.0 mi North 18.4 mph 24.2 mph 0.02 in Rain , Thunderstorm Rain
9:35 AM 41.0 °F 31.9 °F 39.2 °F 93% 29.94 in 3.0 mi North 19.6 mph - 0.08 in Rain Rain
9:55 AM 41.0 °F 32.2 °F 37.4 °F 87% 29.95 in 4.0 mi North 18.4 mph - 0.13 in Rain Rain
10:15 AM 41.0 °F 32.5 °F 39.2 °F 93% 30.01 in 5.0 mi North 17.3 mph 21.9 mph 0.05 in Rain Heavy Rain
10:55 AM 41.0 °F 32.2 °F 37.4 °F 87% 30.00 in 4.0 mi NNW 18.4 mph 27.6 mph 0.14 in Rain , Thunderstorm Rain
11:35 AM 41.0 °F 31.1 °F 37.4 °F 87% 29.99 in 10.0 mi NNW 23.0 mph - 0.11 in Rain Light Rain
11:55 AM 41.0 °F 32.2 °F 37.4 °F 87% 30.01 in 2.0 mi North 18.4 mph 25.3 mph 0.18 in Rain Rain
12:15 PM 41.0 °F 31.4 °F 37.4 °F 87% 30.00 in 10.0 mi NNW 21.9 mph 26.5 mph N/A Rain Light Rain
12:35 PM 41.0 °F 33.1 °F 37.4 °F 87% 30.03 in 5.0 mi NNW 15.0 mph 24.2 mph 0.03 in Rain Heavy Rain
12:55 PM 41.0 °F 31.9 °F 37.4 °F 87% 29.99 in 10.0 mi North 19.6 mph - 0.04 in Rain Light Rain
1:15 PM 41.0 °F 33.1 °F 37.4 °F 87% 30.00 in 10.0 mi North 15.0 mph - N/A Rain Light Rain
1:35 PM 41.0 °F 32.8 °F 37.4 °F 87% 30.01 in 10.0 mi North 16.1 mph - N/A Rain Light Rain
1:55 PM 41.0 °F 31.9 °F 37.4 °F 87% 30.04 in 7.0 mi NNW 19.6 mph 24.2 mph 0.01 in Rain Heavy Rain
2:15 PM 39.2 °F 29.3 °F 35.6 °F 87% 30.07 in 10.0 mi NNW 20.7 mph - N/A Rain Light Rain
2:35 PM 39.2 °F 30.2 °F 35.6 °F 87% 30.10 in 10.0 mi NW 17.3 mph 21.9 mph N/A   Light Drizzle
2:55 PM 37.4 °F 27.2 °F 35.6 °F 93% 30.10 in 10.0 mi NNW 19.6 mph 26.5 mph N/A Rain Rain
3:15 PM 37.4 °F 27.5 °F 35.6 °F 93% 30.14 in 10.0 mi NW 18.4 mph - N/A Rain Light Rain
3:35 PM 37.4 °F 26.1 °F 33.8 °F 87% 30.15 in 10.0 mi NNW 24.2 mph - N/A   Overcast
3:55 PM 35.6 °F 24.5 °F 33.8 °F 93% 30.16 in 10.0 mi NNW 20.7 mph 26.5 mph N/A   Overcast
4:15 PM 35.6 °F 24.2 °F 33.8 °F 93% 30.17 in 10.0 mi NNW 21.9 mph 26.5 mph N/A   Overcast
4:35 PM 35.6 °F 25.9 °F 33.8 °F 93% 30.17 in 10.0 mi North 16.1 mph 20.7 mph N/A   Overcast
4:55 PM 35.6 °F 25.9 °F 33.8 °F 93% 30.18 in 10.0 mi North 16.1 mph - N/A   Overcast
5:15 PM 35.6 °F 26.6 °F 33.8 °F 93% 30.18 in 10.0 mi North 13.8 mph - N/A   Overcast
5:35 PM 35.6 °F 25.9 °F 33.8 °F 93% 30.19 in 10.0 mi North 16.1 mph 19.6 mph N/A   Overcast
5:55 PM 35.6 °F 24.5 °F 33.8 °F 93% 30.20 in 10.0 mi North 20.7 mph 25.3 mph N/A   Overcast
6:15 PM 35.6 °F 25.5 °F 33.8 °F 93% 30.20 in 10.0 mi North 17.3 mph 20.7 mph N/A   Overcast
6:35 PM 37.4 °F 27.8 °F 33.8 °F 87% 30.19 in 10.0 mi North 17.3 mph 24.2 mph N/A   Overcast
6:55 PM 37.4 °F 28.5 °F 33.8 °F 87% 30.20 in 10.0 mi North 15.0 mph 20.7 mph N/A   Overcast
7:15 PM 37.4 °F 27.5 °F 33.8 °F 87% 30.21 in 10.0 mi North 18.4 mph - N/A   Overcast
7:35 PM 35.6 °F 24.8 °F 32.0 °F 87% 30.22 in 10.0 mi North 19.6 mph - N/A   Overcast
7:55 PM 35.6 °F 25.9 °F 32.0 °F 87% 30.23 in 10.0 mi North 16.1 mph - N/A   Overcast
8:15 PM 35.6 °F 25.2 °F 32.0 °F 87% 30.23 in 10.0 mi North 18.4 mph - N/A   Overcast
8:35 PM 35.6 °F 25.2 °F 32.0 °F 87% 30.24 in 10.0 mi North 18.4 mph 23.0 mph N/A   Overcast
8:55 PM 35.6 °F 26.6 °F 32.0 °F 87% 30.24 in 10.0 mi North 13.8 mph - N/A   Overcast
9:15 PM 35.6 °F 26.2 °F 32.0 °F 87% 30.24 in 10.0 mi North 15.0 mph 19.6 mph N/A   Scattered Clouds
9:35 PM 33.8 °F 23.2 °F 32.0 °F 93% 30.25 in 10.0 mi North 17.3 mph - N/A   Clear
9:55 PM 33.8 °F 23.9 °F 32.0 °F 93% 30.26 in 10.0 mi North 15.0 mph - N/A   Scattered Clouds
10:35 PM 33.8 °F 25.3 °F 30.2 °F 87% 30.27 in 10.0 mi North 11.5 mph - N/A   Scattered Clouds
10:55 PM 33.8 °F 24.8 °F 30.2 °F 87% 30.28 in 10.0 mi North 12.7 mph - N/A   Clear
11:15 PM 33.8 °F 23.9 °F 30.2 °F 87% 30.28 in 10.0 mi North 15.0 mph - N/A   Scattered Clouds
11:35 PM 33.8 °F 23.2 °F 30.2 °F 87% 30.29 in 10.0 mi North 17.3 mph 23.0 mph N/A   Mostly Cloudy
11:55 PM 33.8 °F 23.5 °F 30.2 °F 87% 30.29 in 10.0 mi North 16.1 mph - N/A   Mostly Cloudy